星链-3793 (STARLINK-3793 )

导读

STARLINK-3793是美国太空探索技术公司SpaceX星链星座项目中的一颗低轨通信卫星,于北京时间2022年4月29日8时成功发射。星链项目旨在通过构建大规模低轨卫星星座,为全球提供高速低延迟互联网服务,重点覆盖偏远区域、海洋空域等地面网络难以覆盖的区域。该卫星运行于近地轨道,为星链全球通信网络的构建提供支撑,助力项目实现全球网络覆盖目标,但星链大规模部署也引发了对太空拥堵、天文观测干扰等问题的担忧。

基本信息
目录编号:
52380
目录名称:
STARLINK-3793
国际标识:
2022-045BB
轨道中心:
EARTH
卫星名称:
星链-3793
卫星全名:
星链-3793 (STARLINK-3793 )
卫星状态:
在轨 (已飞行1510 天)
发射日期:
2022-04-29 UTC
国别 :
美国 (US)
星等 :
--
轨道信息
数据来源 国际轨道数据 AOE轨道数据
星历时间 2026-06-17T09:55:39+0800
13小时前
查看轨道信息
2026-06-14T01:00:00+0800
3天前
查看轨道信息
半长轴 6917.909km 6917.898km
偏心率 0.000135 0.0001313
轨道倾角 53.161° 53.158°
近地点辐角 91.988° 104.005°
升交点赤经 92.875° 108.032°
平近点角 268.127° 290.129°
近地点 538.838km 538.852km
远地点 540.706km 540.67km
周期 95.438分钟 95.438分钟
每日圈数 15.088309 15.088345
详细信息
固有亮度:
5
最大亮度:
2.5
卫星平台:
Starlink v1.5
覆盖范围:
全球
运营商:
太空探索技术公司
运营商所在国:
美国
制造商(研发单位):
太空探索技术公司
制造商所在国:
美国
使用方式:
暂无
卫星简介
星链(Starlink)计划是由太空探索技术公司(SpaceX)提出的一个巨型低轨卫星互联网星座项目,计划在2019年至2024年间在太空搭建由约1.2万颗卫星组成的“星链”网络,其中1584颗将部署在地球上空550千米处的近地轨道,并从2020年开始工作。该卫星仍在工作。
2D轨道图
3D轨道图
轨道高度分析图
轨道倾角分析图
轨道综合分析图
查看轨道综合分析图